• Processing (Info)

  • MPEC 2020-M99 : 2004 LU32

    The following Minor Planet Electronic Circular may be linked-to from your own Web pages, but must not otherwise be redistributed electronically.

    A form allowing access to any MPEC is at the bottom of this page.


    Read MPEC 2020-M98 Read MPEC 2020-M100


    M.P.E.C. 2020-M99                                 Issued 2020 June 24, 19:01 UT
    
         The Minor Planet Electronic Circulars contain information on unusual
             minor planets and routine data on comets.  They are published
        on behalf of Division F of the International Astronomical Union by the
              Minor Planet Center, Smithsonian Astrophysical Observatory,
                              Cambridge, MA 02138, U.S.A.
    
                 Prepared using the Tamkin Foundation Computer Network
    
                                  MPC@CFA.HARVARD.EDU
                URL https://www.minorplanetcenter.net/    ISSN 1523-6714
    
                                    2004 LU32                                
    
    
    Observations:
         K04L32U* C2004 06 09.50862 18 04 39.92 -22 02 54.9          24.5 RoEM099568
         K04L32U  C2004 06 09.59257 18 04 39.54 -22 02 54.8          24.2 RoEM099568
         K04L32U  C2004 06 10.49530 18 04 35.21 -22 02 55.4          24.1 RoEM099568
         K04L32U  C2004 06 10.57923 18 04 34.80 -22 02 55.6          24.7 RoEM099568
         K04L32U  C2005 08 02.36067 18 05 58.89 -22 05 51.9          26.1 RoEM099568
         K04L32U  C2005 08 03.36204 18 05 55.32 -22 05 54.6          24.4 RoEM099568
         K04L32U  C2005 08 03.44734 18 05 55.03 -22 05 54.5          25.1 RoEM099568
    
    Observer details:
    568 Mauna Kea.  Observers T. Fuse, S. Miyazaki, J. R. Spencer, D. J. Tholen,
        F. Toshida.  Measurers M. W. Buie, D. M. Borncamp, J. R. Spencer, P. L.
        Gay, L. H. Wasserman, T. Fuse, H. Karoji1, D. Kinoshita, T. Yanagisawa, S.
        Miyazaki, H. Furusawa, F. Yoshida, T. Yamashida, A. Tajitsu, P. Little, C.
        McMahon, A. Lee, F. Scheulen, C. Sauro, C. Robinson, T. Abbate, T.
        Abrahamson, M. Adam, J. Adamson, A. Agbedor, B. Alexand, U. Allan, X.
        Alldredge, A. M. H. Allen, D. Alton, M. P. Alves, V. S., O. Amerongen, W.
        L. Anderson, J. Andrews, S. Andrews, M. Anstett, K. Applebaum, J.
        Arrington, E. T. F. Ashton, W. Astl, L. G. Atkins, K. Badker, B.
        Badnaruk, E. Baeten, R. C. Bailey, R. Balick, J. L. B, B. E. Barnett, J.
        S. Bartel, C. Bartholomew, P. Baumgaertner, A. Beck, S. Becker, E. Bedard,
        I. Beer, J. Begg, J. Begonja, P. Bel, S. Berr, J. Bevc, V. A. Bezugly, G.
        Bianchini, M. Biel, B. Bigelow, M. Billian, J. Bishop, M. C. Blanaru, S.
        Blystone, G. Boden, T. Boesch, R. Bohnes, C. Boland, F. Bomeny, J. Borck,
        D. Borncamp, M. Boschat, G. P. A. Bos, M. A. Boutilier, S. Boyd, N. B.
        Bradford, S. Bratcher, P. Brayshaw, A. Brinkmann, C. Brittain, D. Brogan,
        R. Brooks, D. Browne, T. Brydon, D. Burluraux, C. Butler, P. Caado, N. G.
        Cairns, F. Callebout, D. Cam, P. Campbell, J. Campos, J. Candeias, A.
        Caracciolo, S. Carlino, A. Ca, C. Carrascal, J. Carruthers, U. Carsenty,
        F. Castro, L. D. Chadwick, E. Chaghafi, B. Chamberlain, K. Champion, C.
        Chandler, J. K. H. Cheng, D. Chestnov, C. Chinery, J. Chisholm, A.
        Civinskas, A. Clark, D. Clea, M. Cline, S. Clingenpeel, B. Collins, E.
        Conseil, S. Corfield, R. Cos, R. Costin, M. Cotton, C. Craddock, M.
        Crosio, J. A. Cross, B. Crossla, C. Crowe, S. Cruze, R. Damerell-Moss, J.
        Danker, M. Darcy, G. David, J. M. A. Dawey, V. P. D. A. Barreto, C. D.
        Grandis, D. d. Vries, S. de, K. Dekker, S. Delille, J. Demers, A. Dether,
        K. Devine, W. A. Dias, S. Diecks, E. Dimitrova, K. M. Doll, P. Dowden, P.
        N. Duggan, A. Dumi, L. M. Duncan, G. Dungworth, P. Dunlea, D. Dzierwa, A.
        Edwards, C. Eli, P. Ellinger, L. J. Elsnau, M. Elustondo, Y. A. Emery, H.
        F. Evans, S. Evdokimova, A. Eve, A. Fakahany, A. Farmer, P. K. Farmer, K.
        Farre, P. Fazekas, A. Felsenstein, N. Fequet, S. Finney, T. Fisher, M. S.
        Fl, R. Fletcher, K. Flippo, J. P. B. Fonseca, C. Foote, K. Fox, D. C. Fro,
        S. Fronczak, R. Fuchs, H. Fukushi, M. Furskog, M. Gaebel, R. Gagliano, D.
        Gash, S. Ghegoiu, B. Gilbert, J. Gilbertson, R. Gill, A. Gillis, R.
        Glover, V. Gonano, S. Gonzaga, S. J. Goodman, A. Gorton, L. Goznel, H.
        Grady, T. Green, P. Greutmann, C. Griffing, P. Gronowski, R. Guerr, E. G.
        Gomez, D. Gutler, C. Guttau, P. Gwenn, L. Hackl, T. Hager,
        E. Hall, J. Haller, T. Hantel, J. Harkin, A. Harlander, C. Hartel, E.
        Hartmeijer, R. F. Harvey, A. Hatwood, H. Heilman, F. Helk, E. Helmersen,
        R. Hendricks, S. Hennessey, B. Hen, B. Herentrey, M. Herr, J. Herridge, J.
        F. Higgins, L. Higgins, S. Hig, T. Hodge, T. Hoffman, T. Hollerung, T.
        Horvath, D. Hrdlicka, M. Huefn, A. E. Huerta-Martin, P. Hughes, M.-T. Hui,
        C. Hunt, C. Hutchinson, B. Imp, S. Ivanchenko, K. Izakovic, P. Jackson, W.
        Jammer, J. D. Jamu, N. Janssen, A. Jaureguiberry, D. Jaworski, P.
        Jennings, R. Jewell, W. Johnson, L. F. Jones, S. L. Kaczmarek, A.
        Kaczmarowski, M. Kaluzny, N. Kaminski, M. Kamp, K. Kanegae, S. Karge, A.
        Karl, D. Karthikeyan, A. Kastengren, S. Kavalli, N. Kaylor, B. Kelly, C.
        Kendall, A. Kenned, B. Kerr, S. Kidner, M. Kidulich, R. King, B.
        Kirschenmann, J. H. Klou, K. Klug, K. Koester, M. Kolling, R. Korber, P.
        Kostrzewa, R. Kracht, H. Krawczyk, J. W. Krawczyk, R. Krikken, P. Krol,
        H. Kumar, M. Kumrucu-Lohmiller, P. Kyriakides, D. J. Lactin, A. Lamperti,
        J. La, M. Larson, F. Laurentiu, C. L. Garff, P. L. Gendre, K. L. Tourneau,
        D. V. Leegwater, N. Lenke, P. A. Leon, A. V. Levin, D. Lindberg, C. Lloyd,
        V. P. Loeffler III, R. Lopez-Fabrega, E. Luchinat, S. Luers, J. Lummus, P.
        J. Lunn, A. Lysiak, C. Macmillan, A. Macumber, R. Madal, K. L. P. Madsen,
        S. Magee, R. Maherjinqiu, C. Mangili, A. Mankevich, B. Manning, D. Marion,
        A. Martin, D. Martinez, J. A. Martins, M. H. M, B. Matter, C. Mays, I.
        Mazouzi, K. Mazowiecka, M. T. Mazzucato, R. Mc, B. McDaniel, P. McGarry,
        G. D. McKee, D. McMillan, R. Mellor, P. Mell, J. Merc, S. Mercer, K.
        Miller, A. Mimeev, G. Mitchell, J. L. Moe, B. B. Molders, R. M.
        Moldoveanu, E. Moody, C. Mooney, C. Moreno-Mar, C. Morford, A. Morgan, D.
        Morgan, K. Morrill, V. Mottino, B. Moyant, W. Muehlisch, E. Muller, T.
        Myllymaki, S. Napier, J. Naujok, C. Nee, M. Negus, D. Nelson, S. Nembrini,
        J. Nethercott, B. Newgrosh, C. Newm, O. Nica, J. Nicholson, M. Nicholson,
        P. Nicholson, M. Nissinen, J. No, A. G. Norris, O. North, P. Northrop, K.
        Nuber, G. O'Callaghan, A. Oikkonen, R. Olejarski, R. Orsval, J. Ostler, K.
        Ozga, N. N. Pakli, A. Pandey, M. Pani, P. Pantoni, E. R. Pearsall, J. K.
        Pedersen, J. Pe, S. Pemberton, C. Perello, P. R. G. Perlmutter, E.
        Perozzi, B. Perry, D. Pettitt, M. Phillips, K. Pidgley, N. Piekarska, R.
        Pierce, F. Piro, T. Playle, M. Plewinska, L. Poffel, S. Pogrebenko, T.
        Pollard, A. Post, D. L. M. Preston, T. Pulokas, J. Purontakanen, E. Pusch,
        J. Quinn, E. Quiroga-Rodriguez, H. Raab, C. A. Radford, V. M. Rahim, C.
        E. Ravasi, I. Regan, F. Reisch, M. Renz, B. Replogle, J. Richmond, E.
        Rike, Q. Ringsak, F. Ringwald, A. E. M. Rojas, J. P. Ronsen, K. Ro, J.
        Ros, J. Rossman, S. L. Roubroeks, T. Rounds, G. Roynon, C. Rueding, M.
        Ruh, N. Rutledge, G. F. Salinas, O. Sanislav, H. Sankala, L. Sarac, M.
        Savels, J. A. Sayle, T. Schafer, U. Scheuss, M. Schindler, S. Sc, K.
        Schmida, T. Scholze, P. Schulz, L. Schupper, J. Scott, M. Scott, J.
        Sejpka, G. Selig, B. M. Shaw, G. Shearwater, L. Sheldon, J. Shelto, A.
        Sheppard, A. Shirvanian, M. Shockley, K. L. Siddall, M. J. Sijens, P.
        Silva, D. J. Simister, M. Simmons, D. Skillman, R. Slivka, I. A. S, M.
        Smith, R. Smith, J. Snyder, B. Sobczuk, L. L. Somsikova, M. Souder, M.
        Spanjaard, A. Springer, T. Stallone, M. Stano, D. Stelter, R. W. S, R.
        Stevens, P. D. Stewart, A. D. Stoca, J. Stuart, J. Sue, P. S. Summ, S. R.
        Taylor, M. Tepper, R. Tertnes, J. Thebarge, P. Thomaidis, J. Th, D. Tomic,
        J. Tompkins, T. Tormanen, A. Torsa, G. Triltzsch, D. Truo, D. Tukendorf,
        T. Turaev, I. Uhl, C. Unger, C. v. Boven, R. V. D. H, P. V. Grijfland, M.
        Veillette, R. H. B. Velthuis, P. Verdelis, M. Ve, G. Verhoeven, A.
        Vertinskis, P. Vigil, D. Volkel, T. Vorley, T. Vor, V. Vorochilov, L. L.
        W. Wah, E. Walravens, D. Ward, S. Ward, J. D. Wa, J. Wartenberg, G.
        Washbourn, P. Waterfield, S. Wegert, A. Wegner-Kami, D. Weilant, D.
        Westbrook, J. Wheat, N. Wheeldon, D. Whitfield, A. Wil, M. V. Winkle, G.
        Wollenhaupt, D. Woodhams, A. Wrobel, C. Yandle, D. R. Zeigler, L. Zinke,
        B. Zinn, I. Zormpa, M.-C. Nuta.  8.2-m Subaru Telescope + SuPrime Cam.
    
    Orbital elements:
    2004 LU32                                                                       
    Epoch 2020 May 31.0 TT = JDT 2459000.5                  Alexandersen              
    M 309.19634              (2000.0)            P               Q                  
    n   0.00316950     Peri.  229.23668     +0.99783248     +0.05780150             
    a  45.8995693      Node   127.42634     -0.04180356     +0.92592769             
    e   0.1471570      Incl.    2.26993     -0.05082129     +0.37325180             
    P 311              H    8.61          G   0.15           U   9                  
    Residuals in seconds of arc
    040609 568  0.1-  0.0-    040610 568  0.1-  0.2-    050803 568  0.1+  0.1-
    040609 568  0.2+  0.1+    050802 568  0.2-  0.3+
    040610 568  0.1-  0.0+    050803 568  0.1-  0.4-
    
    Ephemeris:
    2004 LU32                a,e,i = 45.90, 0.15, 2                  q = 39.1451
    Date    TT    R. A. (2000) Decl.     Delta      r    Elong.  Phase     V
    2020 05 25    19 35 42.8 -20 57 57  41.6366 42.3174   131.7     1.0    25.0
    ...
    2020 06 09    19 34 50.6 -20 59 54  41.4640 42.3123   146.3     0.8    25.0
    ...
    2020 06 17    19 34 17.2 -21 01 10  41.3935 42.3095   154.1     0.6    24.9
    ...
    2020 06 23    19 33 50.1 -21 02 12  41.3515 42.3074   159.9     0.5    24.9
    2020 06 24    19 33 45.5 -21 02 23  41.3454 42.3071   160.9     0.5    24.9
    2020 06 25    19 33 40.8 -21 02 33  41.3397 42.3068   161.8     0.4    24.9
    ...
    2020 07 01    19 33 12.1 -21 03 39  41.3109 42.3047   167.7     0.3    24.9
    ...
    2020 07 09    19 32 32.7 -21 05 10  41.2885 42.3020   175.4     0.1    24.9
    ...
    2020 07 24    19 31 18.0 -21 08 03  41.2963 42.2968   169.9     0.2    24.9
    
    M. P. C. Staff               (C) Copyright 2020 MPC           M.P.E.C. 2020-M99
    


    Read MPEC 2020-M98 Read MPEC 2020-M100


    MPEC number:

    Enter an MPEC number in one of the following forms:

    • 1997-B01 (the full form)
    • J97B01 (the packed version of the full form)
    • B01 (the abbreviated form)